{"data":{"norad_id":58465,"intl_designator":"2023-185D","name":"BANE","alt_names":[],"object_type":"PAYLOAD","status":"ACTIVE","operator":null,"country":"US","launch_date":"2023-12-01","launch_site_code":"AFWTR","launch_vehicle":null,"mission":null,"orbit_class":"UNKNOWN","rcs_meters":null,"size_class":null,"mass_kg":null,"dimensions":null,"purposes":[],"wikipedia_slug":null,"has_3d_model":false,"image_url":null,"decayed_at":null,"tle_current":{"epoch":"2026-05-25T05:47:41.747424Z","epoch_age_seconds":50368,"freshness":"FRESH","line1":"1 58465U 23185D   26145.24145541  .00340888  46889-4  95314-3 0  9996","line2":"2 58465  97.3358 232.6007 0006962 217.6194 142.4595 15.93598542139170","mean_motion":15.93598542,"eccentricity":0.0006962,"inclination_deg":97.3358,"raan_deg":232.6007,"arg_perigee_deg":217.6194,"mean_anomaly_deg":142.4595,"bstar":0.00095314,"rev_number":13917,"period_min":90.361528455766,"perigee_km":287.57835911917,"apogee_km":296.8661673573,"semimajor_km":6670.3592632382,"source":"CELESTRAK","updated_at":"2026-05-25T13:38:00.765033Z"}}}